QPF
0.04 0.03 0.02 0.02 0.02 0.01 0.01 0.01 0.02 0.02 0.02 0.02 0.02 0.03 0.05 0.05 0.03 0.03 0.02 0.02 0.02 0.03 0.03 0.03 0.05 0.04 0.04 0.05 0.06 0.07 0.08 0.08 0.07 0.08 0.08 0.07 0.06 0.05 0.05 0.05 0.05 0.06 0.06
0.04 0.02 0.02 0.02 0.02 0.01 0.01 0.02 0.03 0.02 0.03 0.03 0.03 0.03 0.05 0.06 0.04 0.03 0.02 0.02 0.03 0.03 0.03 0.03 0.04 0.04 0.04 0.06 0.06 0.08 0.09 0.08 0.08 0.11 0.11 0.09 0.07 0.06 0.04 0.04 0.03 0.03 0.04
0.03 0.03 0.02 0.02 0.02 0.02 0.02 0.02 0.02 0.03 0.04 0.04 0.05 0.06 0.08 0.07 0.05 0.05 0.03 0.03 0.04 0.03 0.03 0.03 0.03 0.04 0.04 0.05 0.06 0.08 0.09 0.08 0.08 0.08 0.11 0.12 0.10 0.07 0.04 0.03 0.03 0.03 0.04
0.02 0.03 0.02 0.02 0.01 0.01 0.01 0.01 0.01 0.02 0.04 0.05 0.05 0.06 0.08 0.10 0.10 0.07 0.04 0.04 0.04 0.04 0.04 0.04 0.04 0.04 0.04 0.06 0.06 0.05 0.07 0.09 0.08 0.08 0.07 0.08 0.09 0.10 0.09 0.05 0.04 0.04 0.04
0.01 0.01 0.01 0.02 0.02 0.01 0.01 0.01 0.02 0.02 0.02 0.03 0.03 0.04 0.06 0.08 0.10 0.09 0.06 0.04 0.04 0.04 0.04 0.04 0.05 0.04 0.04 0.06 0.06 0.07 0.08 0.08 0.08 0.08 0.07 0.08 0.08 0.09 0.09 0.07 0.06 0.06 0.06
0.01 0.02 0.02 0.01 0.01 0.01 0.00 0.01 0.01 0.01 0.02 0.03 0.03 0.03 0.06 0.09 0.09 0.06 0.06 0.05 0.04 0.03 0.03 0.04 0.04 0.03 0.03 0.04 0.05 0.06 0.06 0.05 0.05 0.05 0.05 0.06 0.07 0.08 0.09 0.09 0.07 0.05 0.05
0.01 0.01 0.01 0.01 0.01 0.01 0.01 0.01 0.01 0.02 0.02 0.04 0.03 0.03 0.03 0.03 0.04 0.05 0.06 0.05 0.04 0.03 0.03 0.03 0.03 0.02 0.02 0.02 0.05 0.06 0.05 0.04 0.03 0.04 0.03 0.03 0.04 0.04 0.06 0.07 0.08 0.06 0.05
0.00 0.00 0.01 0.01 0.01 0.01 0.01 0.01 0.02 0.02 0.02 0.02 0.03 0.03 0.01 0.01 0.02 0.03 0.05 0.06 0.06 0.05 0.05 0.04 0.02 0.02 0.02 0.02 0.04 0.07 0.05 0.03 0.03 0.03 0.04 0.03 0.02 0.04 0.05 0.06 0.07 0.06 0.05
0.00 0.01 0.01 0.01 0.01 0.01 0.01 0.02 0.02 0.02 0.02 0.02 0.02 0.02 0.01 0.01 0.02 0.03 0.04 0.06 0.07 0.06 0.05 0.04 0.03 0.03 0.03 0.04 0.05 0.06 0.06 0.04 0.04 0.03 0.03 0.03 0.02 0.03 0.04 0.07 0.08 0.07 0.05
0.01 0.01 0.01 0.01 0.01 0.01 0.01 0.01 0.02 0.02 0.02 0.01 0.01 0.01 0.01 0.02 0.02 0.01 0.02 0.03 0.04 0.05 0.05 0.05 0.05 0.04 0.05 0.05 0.05 0.05 0.06 0.04 0.04 0.04 0.04 0.03 0.02 0.02 0.04 0.05 0.05 0.05 0.05
0.01 0.01 0.02 0.01 0.01 0.01 0.01 0.01 0.01 0.02 0.02 0.02 0.02 0.01 0.01 0.01 0.00 0.01 0.01 0.01 0.03 0.04 0.04 0.05 0.05 0.04 0.05 0.05 0.05 0.05 0.06 0.06 0.05 0.04 0.04 0.03 0.02 0.03 0.03 0.03 0.03 0.03 0.04
0.01 0.01 0.01 0.01 0.01 0.01 0.01 0.01 0.01 0.01 0.02 0.02 0.03 0.02 0.01 0.01 0.00 0.00 0.01 0.01 0.02 0.03 0.05 0.05 0.05 0.04 0.04 0.04 0.04 0.04 0.05 0.06 0.05 0.04 0.03 0.02 0.02 0.03 0.03 0.03 0.03 0.03 0.03
0.01 0.01 0.01 0.01 0.01 0.01 0.01 0.01 0.01 0.01 0.02 0.02 0.02 0.02 0.01 0.01 0.01 0.01 0.01 0.02 0.02 0.04 0.05 0.04 0.04 0.04 0.04 0.05 0.04 0.04 0.05 0.05 0.05 0.03 0.02 0.02 0.01 0.02 0.03 0.04 0.03 0.03 0.03
0.02 0.01 0.01 0.01 0.01 0.00 0.01 0.01 0.01 0.01 0.01 0.02 0.02 0.02 0.02 0.02 0.02 0.02 0.02 0.03 0.05 0.06 0.04 0.04 0.04 0.04 0.04 0.04 0.04 0.04 0.05 0.04 0.03 0.03 0.03 0.02 0.01 0.02 0.03 0.03 0.04 0.04 0.04
0.02 0.01 0.01 0.01 0.01 0.00 0.01 0.01 0.01 0.01 0.01 0.01 0.01 0.02 0.03 0.04 0.04 0.03 0.03 0.03 0.04 0.04 0.04 0.05 0.05 0.04 0.04 0.05 0.04 0.04 0.04 0.03 0.03 0.03 0.03 0.03 0.02 0.01 0.02 0.03 0.04 0.05 0.05
0.02 0.02 0.01 0.01 0.01 0.01 0.01 0.01 0.01 0.01 0.01 0.01 0.02 0.03 0.03 0.04 0.05 0.06 0.05 0.05 0.04 0.04 0.05 0.06 0.07 0.06 0.05 0.05 0.05 0.05 0.04 0.04 0.03 0.03 0.03 0.02 0.02 0.02 0.03 0.03 0.03 0.06 0.08
0.05 0.03 0.02 0.01 0.01 0.01 0.01 0.01 0.01 0.00 0.01 0.02 0.02 0.02 0.02 0.03 0.05 0.06 0.06 0.06 0.06 0.05 0.06 0.07 0.08 0.09 0.08 0.07 0.07 0.07 0.07 0.06 0.04 0.03 0.03 0.03 0.04 0.04 0.03 0.03 0.03 0.05 0.07
0.03 0.02 0.02 0.02 0.03 0.02 0.02 0.01 0.01 0.01 0.01 0.02 0.01 0.01 0.02 0.02 0.03 0.06 0.07 0.07 0.08 0.07 0.07 0.07 0.08 0.09 0.08 0.07 0.07 0.07 0.06 0.06 0.05 0.04 0.03 0.05 0.05 0.04 0.04 0.04 0.03 0.02 0.02
0.03 0.03 0.02 0.01 0.02 0.03 0.04 0.04 0.02 0.02 0.02 0.02 0.01 0.01 0.01 0.01 0.02 0.03 0.05 0.06 0.08 0.10 0.09 0.07 0.07 0.08 0.07 0.05 0.05 0.05 0.05 0.05 0.05 0.05 0.04 0.04 0.04 0.04 0.04 0.04 0.03 0.02 0.01
0.03 0.03 0.02 0.01 0.01 0.03 0.04 0.05 0.04 0.03 0.03 0.02 0.02 0.02 0.02 0.03 0.03 0.03 0.04 0.05 0.05 0.09 0.11 0.09 0.08 0.08 0.07 0.05 0.03 0.03 0.03 0.04 0.04 0.04 0.04 0.04 0.03 0.02 0.02 0.03 0.03 0.02 0.02
0.04 0.03 0.02 0.02 0.02 0.02 0.03 0.04 0.04 0.03 0.02 0.02 0.02 0.02 0.03 0.03 0.04 0.04 0.05 0.06 0.06 0.07 0.10 0.11 0.09 0.08 0.06 0.03 0.02 0.01 0.01 0.02 0.03 0.04 0.04 0.04 0.03 0.03 0.02 0.02 0.02 0.02 0.01
0.04 0.04 0.02 0.02 0.01 0.01 0.02 0.03 0.03 0.02 0.02 0.02 0.02 0.02 0.02 0.03 0.04 0.06 0.06 0.06 0.07 0.07 0.08 0.09 0.09 0.07 0.06 0.03 0.02 0.02 0.02 0.02 0.01 0.02 0.03 0.04 0.05 0.04 0.03 0.03 0.03 0.03 0.02
0.04 0.04 0.02 0.02 0.02 0.02 0.02 0.01 0.01 0.01 0.02 0.02 0.02 0.03 0.03 0.03 0.03 0.03 0.04 0.05 0.05 0.05 0.05 0.06 0.07 0.07 0.04 0.02 0.02 0.02 0.01 0.01 0.01 0.01 0.01 0.02 0.02 0.03 0.03 0.03 0.03 0.03 0.03
0.04 0.04 0.04 0.03 0.02 0.02 0.01 0.01 0.01 0.02 0.03 0.03 0.04 0.04 0.04 0.03 0.05 0.05 0.05 0.05 0.06 0.05 0.05 0.06 0.06 0.06 0.05 0.02 0.01 0.01 0.01 0.01 0.01 0.01 0.02 0.02 0.02 0.02 0.02 0.02 0.03 0.02 0.02
0.05 0.06 0.09 0.07 0.06 0.04 0.03 0.02 0.02 0.02 0.03 0.04 0.04 0.04 0.04 0.04 0.06 0.06 0.05 0.04 0.05 0.06 0.06 0.06 0.05 0.04 0.03 0.02 0.01 0.01 0.01 0.01 0.01 0.01 0.01 0.01 0.01 0.01 0.01 0.01 0.01 0.01 0.01
0.06 0.05 0.09 0.08 0.06 0.07 0.06 0.05 0.05 0.05 0.03 0.03 0.03 0.04 0.04 0.05 0.04 0.03 0.03 0.02 0.02 0.02 0.03 0.04 0.04 0.03 0.03 0.02 0.02 0.01 0.01 0.01 0.01 0.01 0.00 0.01 0.01 0.01 0.01 0.01 0.01 0.01 0.01
MSLP
1006.44 1006.98 1007.48 1007.89 1008.19 1008.38 1008.47 1008.50 1008.49 1008.50 1008.55 1008.69 1008.91 1009.23 1009.65 1010.15 1010.70 1011.27 1011.82 1012.33 1012.78 1013.17 1013.50 1013.78 1014.06 1014.36 1014.71 1015.11 1015.58 1016.07 1016.56 1017.01 1017.35 1017.57 1017.65 1017.59 1017.41 1017.16 1016.88 1016.63 1016.44 1016.35 1016.37
1006.50 1007.05 1007.57 1008.02 1008.36 1008.59 1008.72 1008.77 1008.78 1008.79 1008.83 1008.93 1009.11 1009.39 1009.77 1010.22 1010.73 1011.27 1011.80 1012.29 1012.72 1013.09 1013.39 1013.65 1013.89 1014.17 1014.49 1014.89 1015.35 1015.87 1016.40 1016.89 1017.31 1017.60 1017.73 1017.72 1017.57 1017.31 1017.00 1016.69 1016.42 1016.23 1016.14
1006.44 1006.96 1007.48 1007.94 1008.33 1008.61 1008.81 1008.92 1008.98 1009.02 1009.08 1009.18 1009.35 1009.60 1009.93 1010.35 1010.82 1011.33 1011.83 1012.29 1012.70 1013.04 1013.31 1013.54 1013.75 1013.99 1014.28 1014.65 1015.10 1015.61 1016.16 1016.69 1017.15 1017.49 1017.70 1017.74 1017.64 1017.41 1017.10 1016.76 1016.44 1016.17 1015.98
1006.30 1006.75 1007.23 1007.70 1008.11 1008.45 1008.72 1008.92 1009.06 1009.17 1009.27 1009.41 1009.58 1009.82 1010.13 1010.52 1010.95 1011.41 1011.88 1012.31 1012.69 1013.00 1013.25 1013.45 1013.63 1013.83 1014.09 1014.41 1014.83 1015.31 1015.85 1016.38 1016.86 1017.25 1017.50 1017.61 1017.56 1017.38 1017.11 1016.77 1016.43 1016.12 1015.87
1006.15 1006.50 1006.91 1007.35 1007.77 1008.16 1008.50 1008.79 1009.02 1009.22 1009.40 1009.58 1009.78 1010.02 1010.32 1010.67 1011.06 1011.48 1011.91 1012.31 1012.66 1012.95 1013.17 1013.35 1013.50 1013.67 1013.88 1014.16 1014.52 1014.96 1015.45 1015.96 1016.43 1016.83 1017.12 1017.28 1017.29 1017.18 1016.96 1016.67 1016.35 1016.03 1015.74
1006.08 1006.30 1006.62 1006.99 1007.40 1007.81 1008.20 1008.57 1008.89 1009.18 1009.43 1009.66 1009.90 1010.14 1010.42 1010.73 1011.09 1011.46 1011.84 1012.21 1012.53 1012.80 1013.01 1013.17 1013.30 1013.44 1013.61 1013.84 1014.14 1014.52 1014.95 1015.40 1015.85 1016.24 1016.54 1016.73 1016.81 1016.77 1016.62 1016.40 1016.13 1015.84 1015.55
1006.16 1006.25 1006.44 1006.73 1007.08 1007.48 1007.90 1008.31 1008.70 1009.05 1009.36 1009.63 1009.88 1010.13 1010.38 1010.65 1010.96 1011.28 1011.61 1011.94 1012.24 1012.49 1012.69 1012.84 1012.97 1013.09 1013.23 1013.41 1013.65 1013.96 1014.32 1014.70 1015.09 1015.45 1015.75 1015.97 1016.10 1016.13 1016.08 1015.95 1015.76 1015.53 1015.29
1006.47 1006.41 1006.47 1006.64 1006.91 1007.26 1007.66 1008.07 1008.48 1008.86 1009.20 1009.48 1009.73 1009.95 1010.17 1010.39 1010.64 1010.91 1011.19 1011.47 1011.74 1011.98 1012.18 1012.33 1012.46 1012.57 1012.70 1012.84 1013.03 1013.27 1013.55 1013.87 1014.20 1014.51 1014.79 1015.03 1015.21 1015.32 1015.36 1015.33 1015.25 1015.11 1014.93
1007.02 1006.83 1006.75 1006.79 1006.95 1007.21 1007.54 1007.91 1008.29 1008.65 1008.97 1009.24 1009.46 1009.64 1009.80 1009.97 1010.15 1010.35 1010.58 1010.82 1011.06 1011.29 1011.49 1011.66 1011.80 1011.91 1012.03 1012.16 1012.30 1012.48 1012.70 1012.94 1013.20 1013.47 1013.73 1013.97 1014.19 1014.37 1014.51 1014.60 1014.63 1014.60 1014.51
1007.81 1007.50 1007.29 1007.20 1007.22 1007.36 1007.58 1007.87 1008.18 1008.48 1008.75 1008.96 1009.12 1009.24 1009.34 1009.44 1009.55 1009.69 1009.86 1010.06 1010.28 1010.49 1010.70 1010.88 1011.03 1011.17 1011.29 1011.40 1011.52 1011.66 1011.81 1012.00 1012.20 1012.42 1012.65 1012.90 1013.14 1013.38 1013.61 1013.80 1013.95 1014.03 1014.05
1008.79 1008.40 1008.07 1007.84 1007.73 1007.72 1007.82 1007.99 1008.19 1008.40 1008.57 1008.71 1008.80 1008.85 1008.87 1008.90 1008.94 1009.02 1009.14 1009.31 1009.49 1009.70 1009.91 1010.10 1010.28 1010.43 1010.56 1010.67 1010.78 1010.89 1011.00 1011.13 1011.28 1011.46 1011.66 1011.90 1012.17 1012.45 1012.74 1013.02 1013.27 1013.45 1013.56
1009.87 1009.42 1009.00 1008.66 1008.41 1008.27 1008.23 1008.27 1008.35 1008.44 1008.51 1008.55 1008.56 1008.53 1008.49 1008.45 1008.44 1008.46 1008.54 1008.66 1008.83 1009.02 1009.23 1009.44 1009.63 1009.80 1009.94 1010.06 1010.17 1010.25 1010.34 1010.43 1010.54 1010.68 1010.86 1011.08 1011.35 1011.66 1011.99 1012.33 1012.64 1012.90 1013.09
1010.97 1010.49 1010.00 1009.57 1009.21 1008.95 1008.78 1008.69 1008.64 1008.61 1008.58 1008.53 1008.45 1008.35 1008.25 1008.15 1008.09 1008.07 1008.11 1008.21 1008.35 1008.53 1008.74 1008.95 1009.15 1009.34 1009.50 1009.63 1009.73 1009.81 1009.88 1009.95 1010.03 1010.13 1010.28 1010.49 1010.74 1011.05 1011.40 1011.76 1012.10 1012.41 1012.64
1012.00 1011.51 1010.99 1010.49 1010.06 1009.70 1009.42 1009.21 1009.05 1008.92 1008.78 1008.64 1008.49 1008.33 1008.17 1008.03 1007.92 1007.87 1007.88 1007.94 1008.06 1008.23 1008.43 1008.64 1008.85 1009.05 1009.22 1009.37 1009.48 1009.57 1009.63 1009.69 1009.75 1009.84 1009.96 1010.13 1010.36 1010.65 1010.98 1011.33 1011.67 1011.97 1012.21
1012.88 1012.40 1011.88 1011.36 1010.87 1010.45 1010.09 1009.79 1009.53 1009.30 1009.08 1008.86 1008.64 1008.42 1008.21 1008.03 1007.89 1007.80 1007.78 1007.81 1007.91 1008.06 1008.24 1008.45 1008.66 1008.87 1009.06 1009.23 1009.36 1009.46 1009.54 1009.60 1009.66 1009.74 1009.85 1010.00 1010.19 1010.44 1010.73 1011.04 1011.34 1011.61 1011.82
1013.56 1013.11 1012.61 1012.09 1011.60 1011.14 1010.73 1010.36 1010.03 1009.73 1009.43 1009.14 1008.86 1008.58 1008.33 1008.10 1007.92 1007.80 1007.74 1007.74 1007.81 1007.93 1008.09 1008.29 1008.51 1008.73 1008.94 1009.13 1009.29 1009.42 1009.53 1009.62 1009.70 1009.78 1009.88 1010.01 1010.18 1010.38 1010.61 1010.86 1011.10 1011.30 1011.45
1014.00 1013.61 1013.15 1012.67 1012.19 1011.73 1011.30 1010.89 1010.51 1010.14 1009.78 1009.43 1009.09 1008.76 1008.45 1008.17 1007.95 1007.78 1007.68 1007.64 1007.67 1007.76 1007.90 1008.08 1008.29 1008.52 1008.75 1008.97 1009.17 1009.35 1009.51 1009.64 1009.75 1009.86 1009.97 1010.10 1010.24 1010.41 1010.58 1010.76 1010.91 1011.04 1011.11
1014.22 1013.89 1013.50 1013.08 1012.65 1012.21 1011.78 1011.35 1010.94 1010.52 1010.11 1009.70 1009.30 1008.91 1008.54 1008.22 1007.94 1007.71 1007.56 1007.47 1007.45 1007.49 1007.60 1007.77 1007.97 1008.21 1008.46 1008.72 1008.96 1009.19 1009.40 1009.58 1009.75 1009.90 1010.04 1010.17 1010.31 1010.45 1010.57 1010.68 1010.76 1010.79 1010.77
1014.26 1014.01 1013.70 1013.36 1012.98 1012.58 1012.17 1011.75 1011.31 1010.87 1010.41 1009.96 1009.50 1009.06 1008.64 1008.25 1007.91 1007.63 1007.41 1007.26 1007.18 1007.18 1007.25 1007.39 1007.58 1007.82 1008.08 1008.37 1008.65 1008.93 1009.19 1009.43 1009.65 1009.85 1010.02 1010.18 1010.32 1010.44 1010.53 1010.57 1010.58 1010.53 1010.43
1014.21 1014.04 1013.82 1013.55 1013.24 1012.90 1012.52 1012.11 1011.67 1011.21 1010.73 1010.23 1009.74 1009.25 1008.78 1008.34 1007.95 1007.61 1007.33 1007.11 1006.98 1006.93 1006.95 1007.05 1007.22 1007.44 1007.70 1008.00 1008.31 1008.61 1008.91 1009.20 1009.45 1009.69 1009.90 1010.08 1010.22 1010.33 1010.40 1010.41 1010.35 1010.24 1010.07
1014.14 1014.05 1013.92 1013.73 1013.49 1013.20 1012.86 1012.47 1012.05 1011.58 1011.09 1010.58 1010.07 1009.56 1009.06 1008.58 1008.15 1007.76 1007.42 1007.16 1006.97 1006.86 1006.83 1006.89 1007.01 1007.21 1007.45 1007.73 1008.03 1008.34 1008.64 1008.93 1009.21 1009.46 1009.68 1009.86 1010.01 1010.11 1010.16 1010.14 1010.05 1009.89 1009.67
1014.17 1014.15 1014.08 1013.96 1013.78 1013.54 1013.24 1012.88 1012.48 1012.03 1011.55 1011.05 1010.54 1010.03 1009.53 1009.05 1008.59 1008.18 1007.81 1007.51 1007.28 1007.11 1007.03 1007.03 1007.11 1007.24 1007.43 1007.67 1007.92 1008.19 1008.46 1008.72 1008.97 1009.19 1009.39 1009.57 1009.70 1009.78 1009.81 1009.77 1009.66 1009.47 1009.22
1014.34 1014.38 1014.36 1014.29 1014.15 1013.95 1013.68 1013.35 1012.98 1012.56 1012.11 1011.65 1011.17 1010.69 1010.22 1009.76 1009.32 1008.91 1008.54 1008.22 1007.96 1007.76 1007.62 1007.57 1007.57 1007.63 1007.75 1007.90 1008.07 1008.25 1008.44 1008.63 1008.80 1008.96 1009.11 1009.23 1009.32 1009.37 1009.37 1009.32 1009.20 1009.01 1008.75
1014.71 1014.77 1014.79 1014.74 1014.62 1014.44 1014.19 1013.89 1013.54 1013.16 1012.76 1012.34 1011.92 1011.50 1011.09 1010.68 1010.29 1009.92 1009.57 1009.26 1008.99 1008.76 1008.59 1008.47 1008.41 1008.38 1008.40 1008.44 1008.50 1008.56 1008.63 1008.70 1008.76 1008.82 1008.87 1008.91 1008.94 1008.94 1008.91 1008.84 1008.71 1008.52 1008.28
1015.25 1015.32 1015.34 1015.29 1015.17 1014.99 1014.75 1014.46 1014.13 1013.79 1013.44 1013.08 1012.73 1012.39 1012.05 1011.73 1011.41 1011.10 1010.80 1010.52 1010.26 1010.03 1009.83 1009.67 1009.53 1009.42 1009.33 1009.25 1009.17 1009.10 1009.02 1008.95 1008.87 1008.80 1008.74 1008.68 1008.62 1008.57 1008.49 1008.40 1008.26 1008.09 1007.88
1015.91 1015.97 1015.97 1015.90 1015.76 1015.56 1015.31 1015.02 1014.71 1014.39 1014.08 1013.78 1013.49 1013.23 1012.98 1012.74 1012.51 1012.28 1012.05 1011.83 1011.60 1011.39 1011.18 1010.98 1010.79 1010.60 1010.41 1010.22 1010.02 1009.81 1009.59 1009.37 1009.15 1008.94 1008.76 1008.59 1008.45 1008.33 1008.21 1008.09 1007.95 1007.79 1007.60
Thickness
5777 5777 5775 5774 5771 5767 5764 5760 5757 5753 5751 5748 5745 5741 5739 5738 5737 5735 5732 5730 5728 5727 5726 5727 5725 5725 5725 5723 5724 5723 5723 5723 5724 5722 5721 5723 5725 5725 5725 5726 5726 5725 5724
5772 5771 5770 5769 5767 5764 5761 5757 5754 5752 5749 5746 5743 5739 5737 5735 5734 5732 5728 5726 5725 5723 5724 5722 5722 5721 5720 5719 5718 5717 5718 5719 5720 5717 5715 5713 5714 5717 5721 5721 5721 5722 5722
5769 5768 5767 5766 5764 5761 5758 5756 5752 5749 5746 5744 5741 5737 5734 5731 5729 5727 5725 5723 5721 5720 5719 5719 5719 5717 5718 5716 5714 5713 5712 5713 5715 5716 5713 5709 5708 5710 5714 5714 5716 5716 5716
5768 5767 5765 5763 5761 5759 5757 5754 5750 5746 5743 5740 5738 5734 5729 5726 5723 5722 5722 5720 5718 5716 5715 5714 5714 5713 5714 5712 5712 5712 5710 5709 5709 5710 5711 5711 5711 5706 5704 5707 5710 5711 5710
5765 5763 5762 5760 5759 5757 5754 5751 5747 5743 5739 5737 5734 5730 5727 5724 5721 5718 5716 5715 5715 5713 5711 5710 5710 5709 5709 5708 5707 5706 5706 5707 5706 5706 5706 5706 5705 5705 5702 5700 5702 5704 5706
5759 5759 5758 5757 5755 5754 5751 5747 5742 5738 5736 5733 5730 5726 5722 5719 5716 5713 5712 5712 5712 5710 5708 5707 5705 5705 5705 5703 5702 5702 5701 5702 5702 5702 5703 5702 5701 5701 5701 5698 5696 5697 5699
5753 5752 5751 5750 5749 5747 5745 5743 5738 5734 5731 5729 5726 5723 5719 5716 5713 5710 5709 5708 5707 5705 5703 5703 5701 5700 5699 5698 5698 5697 5698 5697 5696 5696 5698 5699 5700 5702 5700 5697 5695 5693 5694
5749 5748 5747 5745 5744 5742 5740 5737 5734 5730 5728 5725 5722 5719 5716 5715 5713 5709 5707 5705 5703 5702 5700 5698 5696 5695 5694 5694 5693 5694 5693 5693 5692 5693 5693 5694 5696 5697 5696 5694 5691 5688 5688
5744 5743 5742 5741 5739 5737 5734 5733 5730 5726 5724 5721 5718 5715 5713 5711 5710 5707 5704 5703 5701 5700 5697 5694 5692 5691 5690 5689 5688 5689 5688 5689 5689 5689 5689 5690 5692 5692 5692 5691 5689 5685 5681
5739 5737 5737 5735 5734 5732 5729 5728 5725 5722 5720 5717 5715 5713 5709 5707 5705 5704 5702 5700 5697 5695 5693 5690 5689 5687 5686 5685 5684 5685 5685 5684 5684 5684 5684 5684 5687 5687 5686 5686 5685 5684 5680
5732 5731 5731 5729 5728 5726 5724 5721 5719 5717 5716 5714 5711 5709 5706 5704 5702 5700 5699 5696 5693 5691 5689 5687 5685 5684 5682 5681 5680 5681 5680 5680 5680 5680 5680 5679 5680 5680 5681 5681 5680 5679 5678
5727 5726 5725 5723 5721 5720 5718 5716 5714 5713 5711 5710 5707 5704 5702 5700 5698 5697 5695 5692 5690 5687 5685 5683 5681 5680 5679 5677 5676 5675 5676 5675 5675 5675 5675 5674 5675 5674 5675 5675 5675 5675 5673
5719 5719 5717 5715 5714 5713 5712 5711 5709 5708 5707 5706 5704 5700 5698 5696 5694 5693 5691 5688 5685 5683 5681 5679 5677 5676 5675 5673 5672 5672 5672 5671 5671 5671 5670 5670 5670 5669 5670 5669 5670 5670 5669
5711 5710 5709 5708 5707 5706 5705 5704 5703 5702 5701 5700 5698 5696 5693 5691 5690 5688 5686 5684 5681 5678 5676 5674 5673 5672 5671 5670 5669 5668 5667 5666 5666 5666 5665 5665 5665 5664 5664 5664 5663 5663 5662
5701 5701 5701 5701 5701 5700 5698 5698 5698 5697 5695 5694 5692 5690 5689 5687 5685 5683 5681 5679 5677 5675 5673 5671 5669 5668 5667 5666 5665 5664 5663 5662 5661 5660 5659 5659 5658 5657 5658 5659 5658 5658 5657
5694 5694 5695 5694 5694 5693 5692 5692 5691 5690 5689 5688 5687 5686 5685 5682 5680 5678 5676 5675 5673 5671 5669 5668 5666 5664 5663 5660 5658 5658 5658 5657 5656 5655 5654 5653 5652 5651 5649 5650 5650 5650 5651
5688 5688 5688 5688 5688 5687 5686 5686 5685 5685 5684 5683 5683 5682 5680 5678 5676 5675 5672 5670 5669 5667 5665 5664 5662 5660 5657 5655 5654 5652 5654 5653 5651 5650 5649 5650 5650 5648 5648 5645 5644 5644 5643
5681 5682 5682 5682 5682 5682 5682 5681 5682 5681 5679 5678 5677 5676 5675 5674 5672 5670 5668 5666 5665 5663 5661 5660 5658 5656 5652 5649 5648 5647 5649 5649 5647 5646 5645 5644 5644 5644 5643 5643 5643 5642 5641
5676 5676 5677 5677 5677 5677 5677 5676 5675 5675 5675 5674 5673 5672 5671 5669 5667 5666 5664 5663 5661 5659 5658 5656 5654 5652 5649 5645 5644 5643 5646 5645 5644 5643 5642 5641 5640 5636 5636 5638 5639 5638 5637
5672 5671 5672 5673 5672 5671 5671 5670 5669 5669 5669 5670 5669 5669 5667 5665 5664 5662 5661 5659 5657 5656 5655 5653 5651 5649 5647 5642 5640 5639 5644 5643 5643 5641 5639 5635 5635 5632 5631 5634 5635 5634 5633
5666 5666 5666 5666 5666 5665 5664 5664 5665 5665 5666 5666 5666 5665 5663 5662 5661 5659 5657 5656 5654 5653 5651 5650 5648 5646 5644 5640 5638 5637 5642 5643 5641 5641 5639 5636 5630 5629 5628 5628 5630 5629 5627
5660 5660 5659 5660 5660 5660 5659 5659 5659 5660 5662 5662 5661 5660 5659 5659 5658 5655 5654 5653 5651 5650 5649 5647 5646 5645 5643 5640 5636 5635 5635 5637 5639 5638 5638 5634 5627 5626 5625 5625 5624 5623 5622
5653 5653 5653 5652 5653 5654 5654 5654 5654 5655 5656 5656 5655 5655 5655 5655 5654 5652 5651 5651 5649 5650 5649 5648 5647 5645 5643 5639 5635 5633 5632 5633 5635 5635 5631 5627 5624 5623 5623 5620 5620 5620 5623
5646 5646 5646 5646 5647 5648 5649 5649 5650 5650 5650 5650 5650 5651 5651 5650 5649 5649 5649 5649 5648 5648 5648 5646 5646 5644 5642 5640 5637 5635 5633 5630 5631 5631 5627 5623 5622 5621 5620 5619 5619 5619 5620
5638 5638 5638 5639 5640 5642 5643 5644 5645 5644 5645 5645 5646 5647 5647 5646 5645 5645 5644 5645 5644 5644 5643 5643 5643 5641 5639 5635 5632 5633 5633 5632 5632 5629 5628 5626 5625 5624 5624 5622 5620 5619 5617
5629 5630 5631 5632 5634 5636 5637 5638 5639 5639 5639 5640 5641 5642 5642 5642 5643 5642 5641 5637 5637 5636 5635 5634 5635 5636 5632 5629 5627 5626 5625 5624 5622 5624 5627 5626 5625 5624 5623 5621 5619 5617 5615